Mandan, ND

11:26 AM CDT on July 28, 2017 (GMT -0500)
Mandan

Weather History for KY19 - April, 2013

Change the Weather History Date:

Tuesday, April 9, 2013

  Actual Average (KBIS) Record (KBIS)
Temperature  
Mean Temperature 20 °F -  
Max Temperature 28 °F 51 °F 87 °F (1977)
Min Temperature 12 °F 26 °F 1 °F (1997)
Degree Days  
Heating Degree Days 45    
Moisture  
Dew Point 13 °F    
Average Humidity 77    
Maximum Humidity 92    
Minimum Humidity 59    
Precipitation  
Precipitation 0.00 in - - ()
Sea Level Pressure  
Sea Level Pressure 30.36 in    
Wind  
Wind Speed 17 mph (North)    
Max Wind Speed 23 mph    
Max Gust Speed 29 mph    
Visibility 10 miles    
Events      
Averages and records for this station are not official NWS values.
T = Trace of Precipitation, MM = Missing Value Source: NWS Daily Summary

Daily Weather History Graph

Daily Weather History Graph

Search for Another Location

Airport or City:

Trip Planner

Search our weather history database for the weather conditions in past years. The results will help you decide how hot, cold, wet, or windy it might be!

Date:

Astronomy

Apr. 09, 2013 Rise Set
Actual Time 7:06 AM CDT 8:24 PM CDT
Civil Twilight 6:35 AM CDT 8:55 PM CDT
Nautical Twilight 5:57 AM CDT 9:33 PM CDT
Astronomical Twilight 5:17 AM CDT 10:13 PM CDT
Moon 6:32 AM CDT (4/9) 8:02 PM CDT (4/9)
Length of Visible Light 14h 19m
Length of Day
13h 17m
Waning Crescent, 1% of the Moon is Illuminated
Apr 9
Waning Crescent
Apr 10
New
Apr 18
First Quarter
Apr 25
Full
May 2
Last Quarter

Hourly Weather History & Observations

Time (CDT) Temp. Windchill Dew Point Humidity Pressure Visibility Wind Dir Wind Speed Gust Speed Precip Events Conditions
12:15 AM 14.0 °F -4.7 °F 10.4 °F 86% 30.30 in 10.0 mi North 23.0 mph 28.8 mph N/A   Overcast
12:35 AM 14.0 °F -4.3 °F 10.4 °F 86% 30.30 in 10.0 mi North 21.9 mph 26.5 mph N/A   Overcast
12:55 AM 14.0 °F -3.0 °F 8.6 °F 79% 30.30 in 10.0 mi North 18.4 mph 26.5 mph N/A   Mostly Cloudy
1:15 AM 14.0 °F -3.0 °F 8.6 °F 79% 30.31 in 10.0 mi North 18.4 mph 23.0 mph N/A   Scattered Clouds
1:35 AM 14.0 °F -3.4 °F 8.6 °F 79% 30.32 in 10.0 mi North 19.6 mph - N/A   Partly Cloudy
1:55 AM 14.0 °F -2.5 °F 8.6 °F 79% 30.32 in 10.0 mi North 17.3 mph - N/A   Clear
2:15 AM 14.0 °F -1.4 °F 8.6 °F 79% 30.33 in 10.0 mi North 15.0 mph 21.9 mph N/A   Clear
2:35 AM 14.0 °F -2.0 °F 8.6 °F 79% 30.33 in 10.0 mi North 16.1 mph 21.9 mph N/A   Clear
2:55 AM 14.0 °F -2.5 °F 8.6 °F 79% 30.32 in 10.0 mi North 17.3 mph - N/A   Clear
3:15 AM 14.0 °F -0.8 °F 8.6 °F 79% 30.32 in 10.0 mi North 13.8 mph - N/A   Mostly Cloudy
3:35 AM 14.0 °F 0.5 °F 8.6 °F 79% 30.32 in 10.0 mi NNE 11.5 mph - N/A   Scattered Clouds
3:55 AM 14.0 °F -3.0 °F 10.4 °F 86% 30.32 in 10.0 mi North 18.4 mph 23.0 mph N/A   Mostly Cloudy
4:15 AM 14.0 °F -0.8 °F 10.4 °F 86% 30.32 in 10.0 mi North 13.8 mph - N/A   Overcast
4:35 AM 14.0 °F -2.0 °F 8.6 °F 79% 30.31 in 10.0 mi North 16.1 mph 21.9 mph N/A   Mostly Cloudy
4:55 AM 12.2 °F -3.7 °F 8.6 °F 85% 30.32 in 10.0 mi North 15.0 mph - N/A   Scattered Clouds
5:15 AM 12.2 °F -4.8 °F 8.6 °F 85% 30.32 in 10.0 mi North 17.3 mph 23.0 mph N/A   Partly Cloudy
5:35 AM 12.2 °F -5.3 °F 8.6 °F 85% 30.33 in 10.0 mi North 18.4 mph - N/A   Mostly Cloudy
5:55 AM 14.0 °F -2.0 °F 10.4 °F 86% 30.34 in 10.0 mi North 16.1 mph - N/A   Mostly Cloudy
6:15 AM 12.2 °F -4.8 °F 10.4 °F 92% 30.34 in 10.0 mi North 17.3 mph - N/A   Clear
6:35 AM 12.2 °F -3.7 °F 10.4 °F 92% 30.35 in 10.0 mi NNW 15.0 mph - N/A   Clear
6:55 AM 12.2 °F -4.8 °F 8.6 °F 85% 30.35 in 10.0 mi North 17.3 mph 21.9 mph N/A   Clear
7:15 AM 12.2 °F -3.7 °F 8.6 °F 85% 30.36 in 10.0 mi NNW 15.0 mph - N/A   Clear
7:35 AM 12.2 °F -3.1 °F 8.6 °F 85% 30.37 in 10.0 mi NNW 13.8 mph - N/A   Clear
7:55 AM 12.2 °F -2.5 °F 10.4 °F 92% 30.37 in 10.0 mi NNW 12.7 mph - N/A   Clear
8:15 AM 12.2 °F -4.3 °F 10.4 °F 92% 30.38 in 10.0 mi NNW 16.1 mph - N/A   Clear
8:35 AM 14.0 °F -1.4 °F 10.4 °F 86% 30.38 in 10.0 mi NNW 15.0 mph 18.4 mph N/A   Clear
8:55 AM 14.0 °F -0.8 °F 10.4 °F 86% 30.38 in 10.0 mi NNW 13.8 mph - N/A   Clear
9:15 AM 14.0 °F -2.0 °F 10.4 °F 86% 30.39 in 10.0 mi NNW 16.1 mph - N/A   Clear
9:35 AM 14.0 °F -1.4 °F 10.4 °F 86% 30.40 in 10.0 mi NNW 15.0 mph - N/A   Clear
9:55 AM 15.8 °F 2.1 °F 10.4 °F 79% 30.41 in 10.0 mi NNW 12.7 mph - N/A   Clear
10:15 AM 15.8 °F 1.4 °F 12.2 °F 86% 30.41 in 10.0 mi North 13.8 mph - N/A   Clear
10:35 AM 17.6 °F 3.2 °F 12.2 °F 79% 30.41 in 10.0 mi North 15.0 mph - N/A   Clear
10:55 AM 17.6 °F 3.7 °F 12.2 °F 79% 30.41 in 10.0 mi North 13.8 mph 20.7 mph N/A   Clear
11:15 AM 19.4 °F 4.5 °F 14.0 °F 80% 30.40 in 10.0 mi North 17.3 mph - N/A   Clear
11:35 AM 19.4 °F 5.5 °F 14.0 °F 80% 30.41 in 10.0 mi North 15.0 mph - N/A   Clear
11:55 AM 21.2 °F 7.3 °F 14.0 °F 74% 30.41 in 10.0 mi North 16.1 mph 24.2 mph N/A   Clear
12:15 PM 23.0 °F 10.1 °F 15.8 °F 74% 30.41 in 10.0 mi North 15.0 mph 20.7 mph N/A   Partly Cloudy
12:35 PM 23.0 °F 10.1 °F 15.8 °F 74% 30.40 in 10.0 mi North 15.0 mph - N/A   Scattered Clouds
12:55 PM 23.0 °F 9.2 °F 15.8 °F 74% 30.39 in 10.0 mi North 17.3 mph 23.0 mph N/A   Mostly Cloudy
1:15 PM 23.0 °F 8.7 °F 15.8 °F 74% 30.39 in 10.0 mi North 18.4 mph 24.2 mph N/A   Mostly Cloudy
1:35 PM 24.8 °F 11.1 °F 15.8 °F 69% 30.38 in 10.0 mi NNE 18.4 mph 24.2 mph N/A   Scattered Clouds
1:55 PM 24.8 °F 11.1 °F 15.8 °F 69% 30.38 in 10.0 mi North 18.4 mph 23.0 mph N/A   Mostly Cloudy
2:15 PM 24.8 °F 12.4 °F 15.8 °F 69% 30.38 in 10.0 mi NNE 15.0 mph - N/A   Scattered Clouds
2:35 PM 24.8 °F 10.7 °F 15.8 °F 69% 30.37 in 10.0 mi NNE 19.6 mph 24.2 mph N/A   Partly Cloudy
2:55 PM 26.6 °F 14.3 °F 15.8 °F 64% 30.38 in 10.0 mi NNE 16.1 mph 20.7 mph N/A   Partly Cloudy
3:15 PM 26.6 °F 15.7 °F 15.8 °F 64% 30.39 in 10.0 mi NNE 12.7 mph 18.4 mph N/A   Clear
3:35 PM 26.6 °F 15.2 °F 15.8 °F 64% 30.40 in 10.0 mi NNE 13.8 mph - N/A   Clear
3:55 PM 26.6 °F 13.8 °F 17.6 °F 69% 30.37 in 10.0 mi NNE 17.3 mph 20.7 mph N/A   Clear
4:15 PM 26.6 °F 13.4 °F 17.6 °F 69% 30.35 in 10.0 mi NNE 18.4 mph 24.2 mph N/A   Clear
4:35 PM 26.6 °F 12.7 °F 17.6 °F 69% 30.34 in 10.0 mi North 20.7 mph 26.5 mph N/A   Clear
4:55 PM 28.4 °F 17.5 °F 17.6 °F 64% 30.35 in 10.0 mi North 13.8 mph 19.6 mph N/A   Clear
5:15 PM 28.4 °F 18.0 °F 17.6 °F 64% 30.35 in 10.0 mi NNE 12.7 mph 18.4 mph N/A   Clear
5:35 PM 28.4 °F 17.5 °F 17.6 °F 64% 30.34 in 10.0 mi North 13.8 mph 19.6 mph N/A   Clear
5:55 PM 28.4 °F 16.6 °F 17.6 °F 64% 30.34 in 10.0 mi NNE 16.1 mph 23.0 mph N/A   Clear
6:15 PM 28.4 °F 17.5 °F 17.6 °F 64% 30.35 in 10.0 mi North 13.8 mph - N/A   Clear
6:35 PM 28.4 °F 16.2 °F 17.6 °F 64% 30.36 in 10.0 mi NNE 17.3 mph - N/A   Partly Cloudy
6:55 PM 26.6 °F 14.7 °F 15.8 °F 64% 30.35 in 10.0 mi NNE 15.0 mph - N/A   Partly Cloudy
7:15 PM 26.6 °F 14.7 °F 14.0 °F 59% 30.34 in 10.0 mi NNE 15.0 mph - N/A   Clear
7:35 PM 24.8 °F 11.1 °F 15.8 °F 69% 30.32 in 10.0 mi North 18.4 mph 21.9 mph N/A   Clear
7:55 PM 24.8 °F 12.9 °F 14.0 °F 64% 30.33 in 10.0 mi North 13.8 mph 19.6 mph N/A   Clear
8:15 PM 24.8 °F 12.9 °F 15.8 °F 69% 30.34 in 10.0 mi North 13.8 mph - N/A   Clear
8:35 PM 24.8 °F 14.0 °F 15.8 °F 69% 30.34 in 10.0 mi North 11.5 mph - N/A   Clear
8:55 PM 24.8 °F 14.0 °F 17.6 °F 74% 30.34 in 10.0 mi NNE 11.5 mph - N/A   Mostly Cloudy
9:15 PM 24.8 °F 13.4 °F 17.6 °F 74% 30.34 in 10.0 mi North 12.7 mph - N/A   Partly Cloudy
9:55 PM 23.0 °F 11.7 °F 19.4 °F 86% 30.35 in 10.0 mi North 11.5 mph - N/A   Scattered Clouds
10:15 PM 23.0 °F 11.7 °F 19.4 °F 86% 30.36 in 10.0 mi North 11.5 mph - N/A   Mostly Cloudy
10:35 PM 24.8 °F 14.0 °F 19.4 °F 80% 30.36 in 10.0 mi North 11.5 mph - N/A   Mostly Cloudy
10:55 PM 24.8 °F 15.3 °F 17.6 °F 74% 30.36 in 10.0 mi North 9.2 mph - N/A   Partly Cloudy
11:15 PM 23.0 °F 14.7 °F 19.4 °F 86% 30.35 in 10.0 mi North 6.9 mph - N/A   Clear
11:35 PM 23.0 °F 14.7 °F 19.4 °F 86% 30.36 in 10.0 mi NNW 6.9 mph - N/A   Mostly Cloudy
11:55 PM 23.0 °F 15.8 °F 19.4 °F 86% 30.37 in 10.0 mi NW 5.8 mph - N/A   Partly Cloudy